• In Belarus
  • List of Countries
  • For 7 days
  • Water Temperature
  • Weather Map
  • Weather Widgets
  • user-avatar
    Login

    Hourly Weather Cambridge

    Today, 28 February, Friday

    Time Temperature Precipitation Wind Pressure Humidity
    00:00 -1°C° 0 mm 4 mps 759 mmHg 87%
    01:00 -1°C° 0 mm 4 mps 758 mmHg 87%
    02:00 0°C° 0 mm 3 mps 758 mmHg 87%
    03:00 0°C° 0 mm 3 mps 758 mmHg 88%
    04:00 0°C° 0 mm 3 mps 758 mmHg 86%
    05:00 -1°C° 0 mm 4 mps 758 mmHg 84%
    06:00 +1°C° 0 mm 3 mps 758 mmHg 84%
    07:00 +1°C° 0.1 mm 4 mps 757 mmHg 84%
    08:00 +2°C° 0.1 mm 5 mps 756 mmHg 84%
    09:00 +3°C° 0.1 mm 6 mps 756 mmHg 83%
    10:00 +2°C° 0.9 mm 8 mps 754 mmHg 86%
    11:00 +2°C° 0.9 mm 9 mps 753 mmHg 89%
    12:00 +2°C° 0 mm 9 mps 752 mmHg 91%
    13:00 +2°C° 1.4 mm 9 mps 750 mmHg 92%
    14:00 +3°C° 1.4 mm 9 mps 749 mmHg 92%
    15:00 +5°C° 1.4 mm 9 mps 747 mmHg 93%
    16:00 +6°C° 0.4 mm 8 mps 747 mmHg 92%
    17:00 +7°C° 0.4 mm 8 mps 746 mmHg 91%
    18:00 +9°C° 0.4 mm 8 mps 745 mmHg 90%
    19:00 +9°C° 0.1 mm 8 mps 745 mmHg 89%
    20:00 +8°C° 0.1 mm 9 mps 744 mmHg 89%
    21:00 +8°C° 0.1 mm 9 mps 744 mmHg 88%
    22:00 +8°C° 0.1 mm 9 mps 743 mmHg 87%
    23:00 +8°C° 0.1 mm 9 mps 743 mmHg 87%

    Tomorrow, 29 February, Saturday

    Time Temperature Precipitation Wind Pressure Humidity
    00:00 +8°C° 0.1 mm 9 mps 742 mmHg 86%
    01:00 +8°C° 0 mm 9 mps 741 mmHg 86%
    02:00 +8°C° 0 mm 9 mps 739 mmHg 85%
    03:00 +8°C° 0 mm 9 mps 738 mmHg 84%
    04:00 +8°C° 0.2 mm 10 mps 737 mmHg 83%
    05:00 +7°C° 0.2 mm 11 mps 736 mmHg 82%
    06:00 +7°C° 0.2 mm 12 mps 734 mmHg 80%
    07:00 +6°C° 1.6 mm 10 mps 734 mmHg 82%
    08:00 +5°C° 1.6 mm 9 mps 734 mmHg 83%
    09:00 +4°C° 1.6 mm 7 mps 734 mmHg 85%
    10:00 +4°C° 0.2 mm 8 mps 734 mmHg 78%
    11:00 +3°C° 0.2 mm 9 mps 735 mmHg 71%
    12:00 +3°C° 0.2 mm 10 mps 736 mmHg 64%
    13:00 +3°C° 0.2 mm 10 mps 736 mmHg 64%
    14:00 +3°C° 0.2 mm 11 mps 736 mmHg 64%
    15:00 +3°C° 0.2 mm 11 mps 736 mmHg 64%
    16:00 +2°C° 0.1 mm 10 mps 736 mmHg 66%
    17:00 +1°C° 0.1 mm 9 mps 736 mmHg 68%
    18:00 +1°C° 0.1 mm 8 mps 736 mmHg 70%
    19:00 +1°C° 0 mm 9 mps 736 mmHg 69%
    20:00 +1°C° 0 mm 10 mps 736 mmHg 69%
    21:00 -1°C° 0 mm 11 mps 736 mmHg 68%
    22:00 +1°C° 0 mm 11 mps 736 mmHg 70%
    23:00 +1°C° 0 mm 11 mps 736 mmHg 72%

    Day after tomorrow, 1 March, Sunday

    Time Temperature Precipitation Wind Pressure Humidity
    00:00 +1°C° 0 mm 10 mps 736 mmHg 74%
    01:00 +1°C° 0 mm 10 mps 736 mmHg 74%
    02:00 +1°C° 0 mm 10 mps 736 mmHg 74%
    03:00 +1°C° 0 mm 9 mps 736 mmHg 74%
    04:00 0°C° 0 mm 9 mps 737 mmHg 74%
    05:00 0°C° 0 mm 9 mps 737 mmHg 73%
    06:00 0°C° 0 mm 9 mps 737 mmHg 73%
    07:00 0°C° 0 mm 10 mps 737 mmHg 72%
    08:00 +1°C° 0 mm 10 mps 737 mmHg 71%
    09:00 +2°C° 0 mm 10 mps 738 mmHg 70%
    10:00 +2°C° 0 mm 10 mps 738 mmHg 66%
    11:00 +3°C° 0 mm 10 mps 738 mmHg 63%
    12:00 +5°C° 0 mm 10 mps 738 mmHg 59%
    13:00 +5°C° 0.1 mm 10 mps 738 mmHg 60%
    14:00 +5°C° 0.1 mm 9 mps 738 mmHg 61%
    15:00 +5°C° 0.1 mm 9 mps 737 mmHg 61%
    16:00 +4°C° 0 mm 8 mps 737 mmHg 65%
    17:00 +3°C° 0 mm 7 mps 737 mmHg 68%
    18:00 +2°C° 0 mm 6 mps 737 mmHg 72%
    19:00 +2°C° 0 mm 6 mps 737 mmHg 73%
    20:00 +2°C° 0 mm 6 mps 738 mmHg 75%
    21:00 +1°C° 0 mm 6 mps 738 mmHg 77%
    22:00 +1°C° 0 mm 6 mps 738 mmHg 78%
    23:00 +1°C° 0 mm 6 mps 738 mmHg 79%

    2 March, Monday

    Time Temperature Precipitation Wind Pressure Humidity
    00:00 +1°C° 0 mm 6 mps 738 mmHg 81%
    01:00 +1°C° 0 mm 5 mps 738 mmHg 82%
    02:00 0°C° 0 mm 5 mps 738 mmHg 83%
    03:00 0°C° 0 mm 5 mps 738 mmHg 84%
    04:00 0°C° 0 mm 5 mps 738 mmHg 84%
    05:00 -1°C° 0 mm 5 mps 738 mmHg 84%
    06:00 -1°C° 0 mm 5 mps 738 mmHg 84%
    07:00 0°C° 0 mm 5 mps 739 mmHg 80%
    08:00 +1°C° 0 mm 6 mps 739 mmHg 77%
    09:00 +1°C° 0 mm 6 mps 739 mmHg 73%
    10:00 +3°C° 0 mm 6 mps 740 mmHg 69%
    11:00 +4°C° 0 mm 6 mps 740 mmHg 65%
    12:00 +5°C° 0 mm 6 mps 740 mmHg 61%
    13:00 +5°C° 0.1 mm 6 mps 741 mmHg 61%
    14:00 +5°C° 0.1 mm 6 mps 741 mmHg 60%
    15:00 +5°C° 0.1 mm 6 mps 741 mmHg 60%
    16:00 +5°C° 0.1 mm 5 mps 741 mmHg 66%
    17:00 +4°C° 0.1 mm 4 mps 742 mmHg 72%
    18:00 +3°C° 0.1 mm 4 mps 742 mmHg 77%
    19:00 +3°C° 0 mm 4 mps 743 mmHg 78%
    20:00 +1°C° 0 mm 4 mps 744 mmHg 79%
    21:00 +1°C° 0 mm 4 mps 745 mmHg 81%
    22:00 0°C° 0 mm 4 mps 745 mmHg 82%
    23:00 0°C° 0 mm 4 mps 746 mmHg 82%

    3 March, Tuesday

    Time Temperature Precipitation Wind Pressure Humidity
    00:00 0°C° 0 mm 4 mps 746 mmHg 83%
    01:00 -1°C° 0 mm 4 mps 747 mmHg 84%
    02:00 -1°C° 0 mm 4 mps 747 mmHg 84%
    03:00 -1°C° 0 mm 4 mps 748 mmHg 85%
    04:00 -2°C° 0 mm 5 mps 748 mmHg 85%
    05:00 -2°C° 0 mm 5 mps 749 mmHg 85%
    06:00 -2°C° 0 mm 5 mps 749 mmHg 85%
    07:00 -1°C° 0 mm 5 mps 750 mmHg 82%
    08:00 0°C° 0 mm 5 mps 750 mmHg 78%
    09:00 +1°C° 0 mm 6 mps 751 mmHg 75%
    10:00 +2°C° 0 mm 6 mps 751 mmHg 72%
    11:00 +5°C° 0 mm 5 mps 751 mmHg 68%
    12:00 +6°C° 0 mm 5 mps 752 mmHg 65%
    13:00 +6°C° 0.1 mm 5 mps 751 mmHg 64%
    14:00 +6°C° 0.1 mm 5 mps 751 mmHg 63%
    15:00 +5°C° 0.1 mm 6 mps 751 mmHg 62%
    16:00 +5°C° 0 mm 5 mps 751 mmHg 68%
    17:00 +4°C° 0 mm 4 mps 751 mmHg 74%
    18:00 +3°C° 0 mm 3 mps 751 mmHg 80%
    19:00 +3°C° 0 mm 3 mps 751 mmHg 82%
    20:00 +2°C° 0 mm 3 mps 751 mmHg 84%
    21:00 +2°C° 0 mm 3 mps 751 mmHg 85%
    22:00 +3°C° 0 mm 2 mps 750 mmHg 86%
    23:00 +3°C° 0 mm 2 mps 750 mmHg 86%

    4 March, Wednesday

    Time Temperature Precipitation Wind Pressure Humidity
    00:00 +3°C° 0 mm 2 mps 749 mmHg 87%
    01:00 +3°C° 0.3 mm 2 mps 749 mmHg 90%
    02:00 +4°C° 0.3 mm 1 mps 749 mmHg 93%
    03:00 +4°C° 0.3 mm 1 mps 748 mmHg 97%
    04:00 +3°C° 0.5 mm 2 mps 749 mmHg 97%
    05:00 +3°C° 0.5 mm 2 mps 749 mmHg 97%
    06:00 +2°C° 0.5 mm 3 mps 749 mmHg 97%
    07:00 +2°C° 0.1 mm 3 mps 750 mmHg 95%
    08:00 +3°C° 0.1 mm 3 mps 750 mmHg 94%
    09:00 +3°C° 0.1 mm 3 mps 751 mmHg 92%
    10:00 +4°C° 0 mm 3 mps 752 mmHg 86%
    11:00 +5°C° 0 mm 3 mps 752 mmHg 80%
    12:00 +7°C° 0 mm 3 mps 753 mmHg 74%
    13:00 +7°C° 0 mm 3 mps 753 mmHg 70%
    14:00 +8°C° 0 mm 3 mps 754 mmHg 66%
    15:00 +8°C° 0 mm 3 mps 754 mmHg 62%
    16:00 +7°C° 0 mm 3 mps 754 mmHg 66%
    17:00 +6°C° 0 mm 2 mps 755 mmHg 70%
    18:00 +4°C° 0 mm 2 mps 755 mmHg 74%
    19:00 +4°C° 0 mm 2 mps 755 mmHg 76%
    20:00 +3°C° 0 mm 2 mps 756 mmHg 78%
    21:00 +3°C° 0 mm 2 mps 756 mmHg 80%
    22:00 +3°C° 0 mm 2 mps 756 mmHg 81%
    23:00 +2°C° 0 mm 2 mps 756 mmHg 82%
    Show more